sat.trackr.live / text

‹ back to catalog

STARLINK-30614

NORAD 58098 · 2023-161B

PAYLOAD ACTIVE UNKNOWN

§ Identity

Operator
Country
US
Launch date
2023-10-21
Launch site
AFWTR
Launch vehicle
Mass (kg)
RCS (m²)

Purposes: comms

External: N2YO · Heavens-Above · Gunter

§ Orbital elements

Epoch: 2026-05-24T18:55:23.124576Z

Period
94.11 min
Inclination
53.1589°
Eccentricity
0.0001141
Mean motion
15.30190464 rev/d
Perigee alt
474.5 km
Apogee alt
476.0 km
Semi-major
6,853.4 km
B*
2.0631e-5
RAAN
171.9930°
Arg perigee
92.1170°
Mean anomaly
267.9961°
Rev number
14,607

§ Raw data

STARLINK-306141 58098U 23161B   26144.78846209  .00000252  00000+0  20631-4 0  99982 58098  53.1589 171.9930 0001141  92.1170 267.9961 15.30190464146071

JSON: /api/v1/satellites/58098 · /tle

For live sub-satellite position, see the globe view (requires WebGL).

§ Visibility from observer

Set your observer location to see the next 7 days of passes ≥ 10°. The values pass through the URL so the page stays shareable.

No JS? Fill the form by hand. The geolocation button needs JavaScript.